Location: Aranbee
(34.0885°N, 118.2342°W)
Time: 16:14:53
(UTC+00:00)

Courier 1B Rocket - Visible Passes

Search period start: 26 November 2020 00:00
Search period end: 06 December 2020 00:00
Orbit: 920 x 1202 km, 28.2° (Epoch: 25 November)

Date Brightness Start Highest point End Pass type
(mag) Time Alt. Az. Time Alt. Az. Time Alt. Az.
26 Nov 7.6 12:05:07 10° S 12:09:50 17° SSE 12:14:31 10° ESE visible
26 Nov 6.7 13:55:50 10° SW 14:02:54 38° SSE 14:09:45 10° E visible
27 Nov 7.7 11:07:08 11° SSE 11:08:51 11° SSE 11:11:07 10° SE visible
27 Nov 6.9 12:55:07 10° SW 13:01:47 31° SSE 13:08:21 10° E visible
28 Nov 7.1 11:57:00 17° S 12:00:43 24° SSE 12:06:40 10° ESE visible
28 Nov 6.3 13:46:31 10° WSW 13:53:55 46° SSE 14:01:06 10° E visible
29 Nov 7.4 11:00:19 17° SE 11:00:19 17° SE 11:04:30 10° ESE visible
29 Nov 6.5 12:46:43 14° SW 12:52:44 39° SSE 12:59:48 10° E visible
30 Nov 6.6 11:49:55 29° S 11:51:37 32° SSE 11:58:19 10° E visible
30 Nov 6.1 13:37:23 10° WSW 13:44:56 52° S 13:52:21 10° E visible
01 Dec 7.3 10:53:02 21° SE 10:53:02 21° SE 10:56:33 10° ESE visible
01 Dec 6.1 12:39:25 25° SW 12:43:44 47° SSE 12:51:06 10° E visible
02 Dec 6.2 11:42:26 39° SSE 11:42:34 39° SSE 11:49:42 10° E visible
02 Dec 5.9 13:28:49 12° WSW 13:35:59 56° S 13:43:32 10° E visible
03 Dec 7.3 10:45:24 20° ESE 10:45:24 20° ESE 10:48:09 10° E visible
03 Dec 5.9 12:31:46 35° SW 12:34:45 53° S 12:42:18 10° E visible
04 Dec 6.2 11:34:40 44° SE 11:34:40 44° SE 11:40:57 10° E visible
04 Dec 5.9 13:21:02 17° WSW 13:27:03 57° S 13:34:39 10° ESE visible
05 Dec 7.5 10:37:31 18° ESE 10:37:31 18° ESE 10:39:29 10° E visible
05 Dec 5.7 12:23:53 46° SW 12:25:47 56° S 12:33:25 10° E visible
05 Dec 6.1 14:11:52 10° W 14:19:19 49° SSW 14:26:44 10° ESE visible
